Location: Antin
(43.3330°N, 0.2804°E)
Time: 04:32:48
(UTC+00:00)

NOSS 3-1 (C) - Pass Details

Date: 16 October 2021
Orbit: 717 x 1491 km, 63.4° (Epoch: 25 November)

Event Time Altitude Azimuth Distance (km) Brightness Sun altitude
Rises 18:41:56 0° 179° (S) 3,138 6.1 -16.7°
Reaches altitude 10° 18:44:32 10° 166° (SSE) 2,266 5.3 -17.2°
Enters shadow 18:47:36 24° 130° (SE) 1,593 4.2 -17.8°
